SCP
0 1 1 1 0 0 1 1 1 1 0 0 0 0 0 0 0 0 0 0 0 0 0 0 0 0 0 0 0 0 0 0 0 0 0 0 0 0 0 0 0 0 0
0 1 1 1 1 0 1 1 1 1 1 0 0 0 0 0 0 0 0 0 0 0 0 0 0 0 0 0 0 0 0 0 0 0 0 0 0 0 0 0 0 0 0
0 1 1 1 1 1 1 1 1 1 1 0 0 0 0 0 0 0 0 0 0 0 0 0 0 0 0 0 0 0 0 0 0 0 0 0 0 0 0 0 0 0 0
0 1 1 1 1 1 1 1 1 1 1 1 0 0 0 0 0 0 0 0 0 0 0 0 0 0 0 0 0 0 0 0 0 0 0 0 0 0 0 0 0 0 0
0 1 1 1 1 1 0 0 0 1 1 1 0 0 0 0 0 0 0 0 0 0 0 0 0 0 0 0 0 0 0 0 0 0 0 0 0 0 0 0 0 0 0
0 1 1 1 1 1 0 0 0 0 0 0 0 0 0 0 0 0 0 0 0 0 0 0 0 0 0 0 0 0 0 0 0 0 0 0 0 0 0 0 0 0 0
0 1 1 1 1 1 1 0 0 0 0 0 0 0 0 0 0 0 0 0 0 0 0 0 0 0 0 0 0 0 0 0 0 0 0 0 0 0 0 0 0 0 0
0 1 1 1 1 1 1 1 0 0 0 0 0 0 0 0 0 0 0 0 0 0 0 0 0 0 0 0 0 0 0 0 0 0 0 0 0 0 0 0 0 0 0
0 0 1 1 1 1 1 1 0 0 0 0 0 0 0 0 0 0 0 0 0 0 0 0 0 0 0 0 0 0 0 0 0 0 0 0 0 0 0 0 0 0 0
0 0 1 1 1 1 1 0 0 0 0 0 0 0 0 0 0 0 0 0 0 0 0 0 0 0 0 0 0 0 0 0 0 0 0 0 0 0 0 0 0 0 0
0 1 1 1 1 1 1 1 0 0 0 0 0 0 0 0 0 0 0 0 0 0 0 0 0 0 0 0 0 0 0 0 0 0 0 0 0 0 0 0 0 0 0
1 1 1 1 1 1 1 1 1 1 0 0 0 0 0 0 0 0 0 0 0 0 0 0 0 0 0 0 0 0 0 0 0 0 0 0 0 0 0 0 0 0 0
1 1 1 1 1 1 1 1 1 1 1 1 0 0 0 0 0 0 0 0 0 0 0 0 0 0 0 0 0 0 0 0 0 0 0 0 0 0 0 0 0 0 0
1 1 1 1 1 1 1 1 1 1 1 1 1 0 0 0 0 0 0 0 0 0 0 0 0 0 0 0 0 0 0 0 0 0 0 0 0 0 0 0 0 0 0
0 0 1 1 1 1 1 1 1 1 1 1 1 1 0 0 0 0 0 0 0 0 0 0 0 0 0 0 0 0 0 0 0 0 0 0 0 0 0 0 0 0 0
0 0 0 0 1 1 1 1 1 1 1 1 1 1 0 0 0 0 0 0 0 0 0 0 0 0 0 0 0 0 0 0 0 0 0 0 0 0 0 0 0 0 0
1 1 0 0 0 0 1 1 1 1 1 1 1 0 0 0 0 0 0 0 0 0 0 0 0 0 0 0 0 0 0 0 0 0 0 0 0 0 0 0 0 0 0
1 1 1 0 0 0 1 1 1 1 1 1 1 0 0 0 0 0 0 0 0 0 0 0 0 0 0 0 0 0 0 0 0 0 0 0 0 0 0 0 0 0 0
0 1 1 1 1 0 1 1 1 1 1 1 1 0 0 0 0 0 0 0 0 0 0 0 0 0 0 0 0 0 0 0 0 0 0 0 0 0 0 0 0 0 0
0 1 1 1 1 1 1 1 1 1 1 1 1 0 0 0 0 0 0 0 0 0 0 0 0 0 0 0 0 0 0 0 0 0 0 0 0 0 0 0 0 0 0
0 0 1 1 1 1 1 1 1 1 1 1 1 1 0 0 0 0 1 0 0 0 0 0 0 0 0 0 0 0 0 0 0 0 0 0 0 0 0 0 0 0 0
0 0 0 1 1 1 1 1 1 1 1 1 1 1 1 0 0 0 0 0 0 0 0 0 0 0 0 0 0 0 0 0 0 0 0 0 0 0 0 0 0 0 0
0 0 0 1 1 1 1 1 1 1 1 1 1 1 1 1 0 0 0 0 0 0 0 0 0 0 0 0 0 0 0 0 0 0 0 0 0 0 0 0 0 0 0
0 0 0 0 1 1 1 1 1 1 1 1 1 1 1 1 1 1 1 1 0 0 0 0 0 0 0 0 0 0 0 0 0 0 0 0 0 0 0 0 0 0 0
0 0 0 1 1 1 1 1 1 1 1 1 1 1 1 1 1 1 1 1 1 1 0 0 0 0 0 0 0 0 0 0 0 0 0 0 0 0 0 0 0 0 0
0 0 1 1 1 1 1 1 1 1 1 1 1 1 1 1 1 1 1 1 1 1 1 1 0 0 0 0 0 0 0 0 0 0 0 0 0 0 0 0 0 0 1
Wind_Speed
10 13 14 15 15 15 14 13 13 12 12 13 12 12 12 11 11 11 10 10 11 11 12 12 12 12 12 12 12 12 12 12 12 12 12 12 11 11 10 9 6 8 10
13 15 14 14 15 15 14 13 13 12 12 12 12 12 12 12 11 11 10 10 10 11 11 11 11 11 11 11 11 11 11 11 10 10 7 9 10 9 9 8 8 7 8
14 15 15 12 14 15 14 13 13 12 12 12 12 11 11 11 11 10 10 9 9 9 10 10 10 10 10 9 9 9 10 9 9 6 2 5 7 8 8 7 7 8 7
14 14 14 13 13 14 14 13 12 12 12 12 11 11 11 11 10 10 9 9 8 8 8 8 9 9 8 8 8 8 8 8 7 2 2 5 5 7 6 6 6 6 6
13 13 13 12 14 14 14 13 12 12 11 11 11 11 11 10 10 10 9 8 7 7 7 7 8 8 7 7 7 7 7 6 3 0 4 3 4 5 5 5 4 4 4
13 13 14 12 13 14 14 13 12 12 11 11 11 10 10 10 9 9 8 7 7 6 6 6 7 7 6 6 5 5 5 4 2 2 2 2 2 4 3 3 3 2 2
13 12 14 12 12 12 13 13 12 12 11 11 10 10 10 9 9 8 8 7 6 6 6 6 6 6 5 4 4 4 4 1 2 1 1 1 2 4 2 2 2 2 2
12 11 12 11 10 11 11 11 11 11 10 10 10 10 9 9 8 8 7 7 6 5 5 5 5 5 4 3 3 3 2 1 2 1 2 1 3 4 4 3 3 3 4
11 11 11 12 12 10 9 9 9 9 9 9 9 8 8 7 7 6 6 6 6 5 5 4 4 3 3 2 2 2 1 1 4 2 2 2 3 5 6 5 4 4 5
10 10 11 11 11 11 11 9 8 8 8 8 8 7 7 7 6 6 6 5 5 5 5 4 4 3 2 2 1 1 1 4 4 3 2 1 3 6 7 7 6 6 6
9 10 10 11 11 10 10 9 9 8 8 8 8 8 8 7 7 7 6 4 4 4 4 5 4 4 3 3 3 2 4 3 3 3 3 1 5 7 8 8 8 8 8
12 11 10 11 11 10 8 8 8 8 8 9 8 9 7 6 5 5 5 5 5 4 5 5 5 5 6 4 4 4 3 4 4 3 2 2 6 8 9 9 9 9 9
12 11 11 11 11 10 8 7 6 5 6 8 9 8 7 6 5 5 4 5 6 6 6 5 6 5 4 4 3 3 4 4 3 3 3 3 7 9 10 10 10 10 10
12 12 11 11 10 11 9 7 7 6 6 6 8 9 7 5 5 5 4 5 4 4 5 5 4 5 5 5 5 5 5 4 4 3 3 4 8 10 10 10 10 10 10
12 12 12 11 11 10 9 7 7 7 7 7 7 8 9 6 6 6 5 5 5 5 5 5 5 5 5 6 5 6 6 6 6 5 4 5 8 10 10 11 11 10 10
12 12 11 12 11 11 9 8 8 7 7 7 7 8 9 7 7 6 6 5 6 5 5 5 6 5 5 5 6 6 6 6 6 6 6 5 7 9 10 11 10 11 10
11 11 11 11 11 11 11 10 7 7 7 7 7 8 9 9 8 7 6 6 5 5 6 5 6 5 5 5 6 7 6 6 7 7 7 6 5 6 8 9 10 10 10
10 11 11 9 11 12 10 9 7 7 8 7 7 7 10 10 10 8 6 6 6 5 5 5 5 5 5 5 5 5 5 6 7 7 6 6 5 5 5 6 8 9 10
10 10 11 11 11 11 11 9 8 7 7 7 7 7 8 10 10 8 7 6 6 5 5 5 5 5 5 5 5 5 6 6 6 6 7 7 6 6 5 3 5 7 9
9 10 10 11 11 10 8 7 6 7 7 7 7 8 9 8 10 9 7 7 7 6 6 6 6 6 5 5 5 6 6 6 6 6 7 6 5 6 6 5 4 4 6
7 8 10 10 10 9 7 7 7 7 7 7 7 8 9 9 9 9 7 7 7 6 7 7 6 6 5 4 4 5 6 7 7 6 5 5 5 5 5 5 4 3 3
5 6 8 9 9 9 8 7 6 6 5 6 6 7 9 10 10 8 9 7 7 7 8 8 7 5 5 4 4 4 4 4 4 5 5 5 5 4 4 4 4 4 4
4 4 4 6 7 8 9 6 4 4 3 4 6 6 8 9 9 9 9 8 8 8 7 8 8 8 6 6 6 5 4 4 3 3 5 4 4 4 4 4 4 4 4
3 3 3 4 4 6 7 7 9 7 7 7 6 6 6 8 8 9 9 9 8 7 8 7 8 7 8 6 5 6 7 5 5 4 3 4 5 5 5 4 4 4 4
4 3 3 2 2 3 4 7 8 7 6 5 5 5 5 6 7 8 8 8 8 7 8 8 8 8 7 7 6 5 6 7 8 7 7 5 5 5 5 5 5 4 4
5 4 3 3 2 2 1 3 4 5 5 5 4 4 4 4 4 7 7 7 7 7 8 8 8 9 8 8 7 6 6 5 6 7 9 8 6 5 5 5 4 3 3
Wind_Direction
162 157 153 158 156 153 149 146 143 141 139 139 137 134 129 122 118 114 109 103 102 100 98 94 89 87 85 82 78 77 75 71 70 69 70 71 71 71 68 58 51 74 67
153 156 151 159 158 154 151 148 146 145 143 142 141 138 133 125 119 114 111 107 104 102 100 97 93 89 86 83 81 78 76 74 69 65 66 81 73 67 67 59 45 61 65
152 154 156 159 157 154 153 151 150 150 148 146 144 142 137 131 124 117 114 111 110 108 106 103 100 95 90 88 85 80 77 75 69 60 41 75 78 68 64 62 59 60 58
153 156 159 154 156 155 155 153 153 153 151 148 146 144 140 135 131 125 120 116 114 113 112 110 106 100 96 92 89 83 78 73 65 16 65 62 68 64 58 61 58 55 51
155 158 151 154 157 157 157 157 156 156 154 152 150 148 143 139 135 132 128 123 120 119 116 116 115 107 101 95 91 87 82 75 69 341 64 61 63 55 45 55 54 48 43
158 159 153 160 160 161 161 162 162 161 161 160 156 152 149 145 141 138 135 132 128 126 122 121 122 116 111 104 94 87 86 81 242 65 56 45 48 40 23 39 49 49 31
159 161 159 161 162 164 165 167 167 167 167 166 163 158 154 151 150 148 146 142 139 135 132 131 132 125 119 111 100 89 85 64 312 23 14 6 24 358 345 359 0 351 335
161 163 161 159 163 165 169 171 171 171 171 170 168 165 161 159 160 162 160 157 155 150 146 144 143 138 131 121 112 96 84 296 281 308 309 321 24 322 313 303 301 304 299
164 167 168 171 171 169 171 172 172 173 173 172 170 166 162 160 163 166 168 173 175 171 166 161 159 155 157 151 136 117 107 302 282 301 304 311 7 313 309 306 292 289 292
172 176 176 177 180 181 180 174 176 177 175 171 169 163 161 163 168 168 182 180 196 194 189 188 188 195 200 204 191 155 210 248 269 280 279 333 332 300 299 300 297 291 288
183 186 185 183 185 186 186 178 183 181 180 177 177 171 179 194 193 189 197 183 202 205 207 207 205 211 214 206 206 222 246 261 279 279 279 344 296 291 291 292 293 292 290
191 192 192 191 189 190 187 186 193 194 192 199 198 192 199 203 203 209 179 194 207 210 216 220 219 219 231 233 202 214 252 269 273 270 276 273 282 287 289 289 290 290 289
196 195 198 197 195 195 192 194 195 197 199 204 205 204 205 206 204 211 204 196 209 214 222 212 218 231 239 253 262 256 264 269 268 272 271 251 272 279 284 286 287 288 288
200 202 201 201 200 202 202 200 200 200 200 204 204 207 207 208 212 213 218 216 217 218 224 229 231 236 244 249 256 263 264 262 266 271 273 249 265 273 280 283 284 284 286
206 204 204 203 205 203 205 207 207 208 207 207 207 208 211 212 214 215 217 219 224 225 224 229 235 238 244 249 251 257 264 267 268 267 265 241 254 268 274 278 281 283 285
212 209 203 204 207 206 207 209 212 212 211 213 211 211 212 216 217 217 219 219 224 227 231 233 237 240 244 247 253 255 261 267 266 266 269 258 238 255 267 273 278 282 284
214 211 207 206 206 208 211 212 215 213 212 214 215 214 213 217 220 219 222 222 224 224 227 232 238 240 245 247 253 256 258 263 266 267 267 269 263 242 250 267 274 279 284
218 214 211 206 208 210 211 213 214 216 215 216 217 216 216 218 220 220 223 226 223 220 221 224 228 232 239 246 256 259 256 260 262 263 262 260 263 265 249 250 266 275 280
224 220 216 212 212 212 212 213 215 216 219 220 218 218 218 218 218 220 223 226 221 218 220 222 225 230 241 248 257 263 264 263 263 258 257 257 256 260 265 250 245 264 274
230 225 222 218 217 213 209 211 213 217 220 221 220 220 218 218 217 218 222 223 218 217 220 219 224 227 238 252 260 266 266 263 258 256 255 254 254 256 258 263 257 247 251
232 228 225 221 217 210 205 205 208 214 216 219 221 221 220 218 215 215 219 220 216 218 221 218 221 229 233 235 255 270 265 254 252 248 248 251 251 251 254 258 262 268 260
240 235 233 228 221 213 211 208 211 211 215 221 220 222 222 218 216 214 218 219 215 218 222 222 219 228 231 219 236 263 275 256 229 241 243 244 250 247 248 251 255 259 270
259 254 247 242 232 221 216 209 204 209 216 218 222 222 221 219 217 215 217 220 219 219 222 222 219 224 229 224 226 237 255 264 289 230 233 240 246 252 254 253 255 258 260
298 285 264 255 245 232 217 211 210 213 219 223 223 221 219 217 220 219 219 220 221 221 225 225 224 225 228 229 223 230 247 271 271 276 236 236 248 255 259 260 257 258 263
349 342 327 306 280 260 232 220 220 226 232 234 229 228 226 222 222 223 221 220 221 223 226 225 224 224 225 229 227 224 233 244 250 261 270 264 256 252 257 262 263 265 272
14 8 357 353 346 330 281 238 227 230 232 234 237 235 232 228 225 226 224 223 222 224 226 227 226 226 227 229 231 228 228 234 236 243 256 265 268 267 264 263 262 269 272